Powrót do katalogu

ARIANE 44L DEB

AktywnyHEO
NORAD 24741·DEBRIS·🇫🇷 France

Wystrzelony Jan 15, 1991 z Guiana Space Centre

Loading…

Następne Przeloty (najbliższe 24 godziny)

TLE

ŚwieżeSource: Space-Track

Epoka: Sep 14, 2026, 14:14 UTC

1 24741U 91003H   26257.59347442 -.00000269  00000-0 -38939-2 0  9994
2 24741   6.4082 136.6978 6804826 296.9693 297.4991  2.65549829202115

Śledź ARIANE 44L DEB w czasie rzeczywistym z AllMySat

Download on the App Store